Location: *
(49.5667°N, 1.3667°W)
Time: 01:09:01
(UTC+00:00)

Cosmos 1626 - Pass Details

Date: 20 September 2019
Orbit: 493 x 495 km, 82.5° (Epoch: 22 October)

Event Time Altitude Azimuth Distance (km) Brightness Sun altitude
Rises 20:07:27 0° 360° (N) 2,591 6.1 -19.4°
Reaches altitude 10° 20:09:51 10° 13° (NNE) 1,703 5.0 -19.8°
Enters shadow 20:11:43 21° 39° (NE) 1,171 3.8 -20.0°
